TimeCDT,TemperatureF,Dew PointF,Humidity,Sea Level PressureIn,VisibilityMPH,Wind Direction,Wind SpeedMPH,Gust SpeedMPH,PrecipitationIn,Events,Conditions,WindDirDegrees,DateUTC
12:56 AM,57.9,52.0,81,29.93,10.0,NW,6.9,-,N/A,,Clear,320,2013-09-02 05:56:00
1:56 AM,59.0,52.0,78,29.94,10.0,NNW,4.6,-,N/A,,Overcast,340,2013-09-02 06:56:00
2:56 AM,62.1,51.1,67,29.94,10.0,North,5.8,-,N/A,,Overcast,350,2013-09-02 07:56:00
3:08 AM,60.8,51.8,72,29.95,10.0,North,6.9,-,N/A,,Overcast,360,2013-09-02 08:08:00
3:56 AM,61.0,52.0,72,29.95,10.0,North,9.2,-,N/A,,Overcast,350,2013-09-02 08:56:00
4:56 AM,57.9,53.1,84,29.96,10.0,North,8.1,-,N/A,,Overcast,350,2013-09-02 09:56:00
5:56 AM,57.0,52.0,83,29.98,10.0,NNW,6.9,-,N/A,,Overcast,340,2013-09-02 10:56:00
6:56 AM,57.9,51.1,78,30.00,10.0,NNW,6.9,-,N/A,,Overcast,330,2013-09-02 11:56:00
7:56 AM,57.9,50.0,75,30.01,10.0,NNW,6.9,-,N/A,,Overcast,340,2013-09-02 12:56:00
8:56 AM,60.1,52.0,75,30.02,10.0,North,10.4,-,N/A,,Overcast,350,2013-09-02 13:56:00
9:56 AM,59.0,50.0,72,30.05,10.0,NNW,8.1,-,N/A,,Overcast,330,2013-09-02 14:56:00
10:56 AM,61.0,51.1,70,30.06,10.0,North,8.1,-,N/A,,Overcast,360,2013-09-02 15:56:00
11:56 AM,61.0,50.0,67,30.06,10.0,NNW,9.2,-,N/A,,Overcast,330,2013-09-02 16:56:00
12:56 PM,63.0,48.9,60,30.06,10.0,NNW,4.6,-,N/A,,Overcast,330,2013-09-02 17:56:00
1:19 PM,64.4,48.2,56,30.05,10.0,North,8.1,-,N/A,,Overcast,360,2013-09-02 18:19:00
1:56 PM,66.0,46.9,50,30.04,10.0,Variable,6.9,-,N/A,,Mostly Cloudy,0,2013-09-02 18:56:00
2:56 PM,69.1,48.0,47,30.02,10.0,NW,6.9,-,N/A,,Partly Cloudy,310,2013-09-02 19:56:00
3:56 PM,71.1,48.0,44,30.01,10.0,NNW,9.2,-,N/A,,Clear,340,2013-09-02 20:56:00
4:56 PM,70.0,46.9,44,30.01,10.0,Variable,3.5,-,N/A,,Clear,0,2013-09-02 21:56:00
5:56 PM,70.0,46.0,42,30.01,10.0,NNW,9.2,-,N/A,,Clear,340,2013-09-02 22:56:00
6:56 PM,66.9,46.9,49,30.01,10.0,North,6.9,-,N/A,,Clear,10,2013-09-02 23:56:00
7:56 PM,62.1,48.0,60,30.02,10.0,North,3.5,-,N/A,,Clear,360,2013-09-03 00:56:00
8:56 PM,57.9,48.0,70,30.03,10.0,North,4.6,-,N/A,,Clear,360,2013-09-03 01:56:00
9:56 PM,54.0,48.0,80,30.04,10.0,North,4.6,-,N/A,,Clear,360,2013-09-03 02:56:00
10:56 PM,50.0,46.9,89,30.05,10.0,Calm,Calm,-,N/A,,Clear,0,2013-09-03 03:56:00
11:56 PM,50.0,46.9,89,30.06,10.0,Calm,Calm,-,N/A,,Clear,0,2013-09-03 04:56:00